Regional Weather Roundup
Issued by NWS New Orleans/Baton Rouge, LA

Home | Current Version | Previous Version | Text Only | Print | Product List | Glossary On
Versions: 1 2 3 4 5 6 7 8 9 10 11 12 13 14 15 16 17 18 19 20 21 22 23 24 25 26 27 28 29 30 31 32 33 34 35 36 37 38 39 40 41 42 43 44 45 46 47 48 49 50
648
ASUS44 KLIX 282005
RWRLIX
NEW ORLEANS REGIONAL WEATHER ROUNDUP
NATIONAL WEATHER SERVICE NEW ORLEANS LA
200 PM CST FRI NOV 28 2014

NOTE: "FAIR" INDICATES FEW OR NO CLOUDS BELOW 12,000 FEET WITH NO
      SIGNIFICANT WEATHER AND/OR OBSTRUCTIONS TO VISIBILITY.
      SKY/WX - SKY CONDITION AND SIGNIFICANT WEATHER.
      TMP - AIR TEMPERATURE.     DP    - DEWPOINT TEMPERATURE.
      RH  - RELATIVE HUMIDITY.   PRES  - PRESSURE.
      HI  - HEAT INDEX.          WCI   - WIND CHILL INDEX.

*  THESE STATIONS ARE NOT NWS OR FAA STATIONS AND ARE NOT UNDER
   NWS QUALITY CONTROL.

LAZ038-040-048-061>063-065>067-069-282100-
SOUTHEAST LOUISIANA

CITY           SKY/WX    TMP DP  RH WIND       PRES   REMARKS
N.O. AUDUBON   NOT AVBL
N.O. INTL ARPT MOSUNNY   61  39  44 SE7       30.31F
N.O. LAKEFRONT SUNNY     57  41  55 E8        30.33F
N.O. DOWNTOWN*   N/A     57  39  51 E3        30.33F
SLIDELL        SUNNY     60  29  30 VRB5      30.32F
BATON ROUGE    SUNNY     61  32  33 SE6       30.30F
BOOTHVILLE     SUNNY     59  48  67 NE9       30.32F
BELLE CHASSE   SUNNY     60  38  43 SE8       30.32F
BOGALUSA*        N/A     62  25  25 CALM      30.33F
NEW ROADS*       N/A     61  33  35 SE6       30.30F
GONZALES*        N/A     61  33  35 SE6       30.31F
HAMMOND*       SUNNY     61  27  27 S7        30.34F
HOUMA*         SUNNY     64  43  45 NE5       30.31F
PORT FOURCHON* CLEAR     59  48  67 E8G14     30.34F

$$

MSZ070-080>082-282100-
SOUTHERN MISSISSIPPI

CITY           SKY/WX    TMP DP  RH WIND       PRES   REMARKS
MCCOMB         SUNNY     58  27  30 VRB5      30.30F
GULFPORT       SUNNY     55  32  41 S7        30.33F
BILOXI         SUNNY     55  36  49 S7        30.33F
PASCAGOULA     SUNNY     60  26  27 NE3       30.32F
STENNIS ARPT*  SUNNY     55  21  26 SE6       30.33F

$$

COASTAL OBSERVATIONS
LAKE AND NEARSHORE STATIONS

STATION/POSITION TIME  TEMP    WIND        PRES    WAVE
                       AIR SEA DIR/SP/G            HT/PER
                 (UTC) (F)     (DEG/KT/KT) (MB)    (FT/S)
PASCAGOULA       2000   56     160/  5/  7 1026.5
WAVELAND YACHT   2000   50     160/  9/ 10 1026.4
GRAND ISLE       2000   58 58   90/  7/ 11 1027.0
SOUTHWEST PASS   2000   69                 1026.6
NEW CANAL        2000   54 54   70/  8/ 10 1027.1
SHELL BEACH      2000   54 51   50/ 10/ 11 1026.8

OFFSHORE STATIONS

STATION/POSITION TIME  TEMP    WIND        PRES    WAVE
                       AIR SEA DIR/SP/G            HT/PER
                 (UTC) (F)     (DEG/KT/KT) (MB)    (FT/S)
64 S DAUPHIN ISL 1904   57 72   60/ 10/ 14 1027.3    3/ 6

$$




USA.gov is the U.S. government's official web portal to all federal, state and local government web resources and services.